Back to catalog

FENGYUN 1C DEB

AliveSSO
NORAD 30604·DEBRIS·🇨🇳 China

Launched May 10, 1999 from Taiyuan Satellite Launch Center

Loading…

Next Passes (next 24 hours)

TLE

FreshSource: Space-Track

Epoch: Sep 14, 2026, 08:14 UTC

1 30604U 99025AMK 26257.34328479  .00000349  00000-0  13823-3 0  9996
2 30604  98.3744 284.7288 0207354 279.4469  91.5583 14.24032106 17306

Track FENGYUN 1C DEB in real time with AllMySat

Download on the App Store